This is the latest recevied weather packets stored in our database for station/object N8HKU-5. If no packets are shown the sender has not sent any weather packets the latest 10 day(s).
| Time | Temp. | Humidity | Pressure | Rain* | Wind** | Luminosity | Snow |
|---|---|---|---|---|---|---|---|
| 1777921353 | 23.89° C | 40% | 999.6 hPa | 0 mm | - | - | - |
| 1777920754 | 23.33° C | 39% | 999.5 hPa | 0 mm | - | - | - |
| 1777920154 | 23.33° C | 40% | 999.8 hPa | 0 mm | - | - | - |
| 1777919554 | 23.33° C | 39% | 1000 hPa | 0 mm | - | - | - |
| 1777918954 | 23.33° C | 39% | 1000 hPa | 0 mm | - | - | - |
| 1777918355 | 22.78° C | 39% | 1000.2 hPa | 0 mm | - | - | - |
| 1777917754 | 22.78° C | 37% | 1000.2 hPa | 0 mm | - | - | - |
| 1777917153 | 22.78° C | 38% | 1000.3 hPa | 0 mm | - | - | - |
| 1777916553 | 22.78° C | 43% | 1000.6 hPa | 0 mm | - | - | - |
| 1777915954 | 22.22° C | 47% | 1000.7 hPa | 0 mm | - | - | - |
| 1777915354 | 22.22° C | 41% | 1000.9 hPa | 0 mm | - | - | - |
| 1777914753 | 22.22° C | 44% | 1001 hPa | 0 mm | - | - | - |
| 1777914157 | 22.22° C | 47% | 1001.1 hPa | 0 mm | - | - | - |
| 1777913554 | 22.22° C | 48% | 1001.3 hPa | 0 mm | - | - | - |
| 1777912954 | 21.67° C | 54% | 1001.5 hPa | 0 mm | - | - | - |
| 1777912354 | 21.11° C | 50% | 1001.7 hPa | 0 mm | - | - | - |
| 1777911754 | 20.56° C | 54% | 1001.9 hPa | 0 mm | - | - | - |
| 1777911153 | 20.56° C | 54% | 1001.9 hPa | 0 mm | - | - | - |
| 1777909954 | 20° C | 55% | 1001.9 hPa | 0 mm | - | - | - |
| 1777909354 | 19.44° C | 56% | 1002.1 hPa | 0 mm | - | - | - |
| 1777908754 | 18.89° C | 56% | 1002.2 hPa | 0 mm | - | - | - |
| 1777908153 | 18.33° C | 57% | 1002.2 hPa | 0 mm | - | - | - |
| 1777907554 | 18.33° C | 57% | 1002.4 hPa | 0 mm | - | - | - |
| 1777906954 | 17.78° C | 62% | 1002.3 hPa | 0 mm | - | - | - |
| 1777906356 | 17.22° C | 61% | 1002.3 hPa | 0 mm | - | - | - |
* Rain latest hour (hover to see other rain measurements)
** Current wind speed in m/s (hover to see current wind gust speed)